Temperature
20 19 19 19 18 18 18 18 18 17 17 17 17 17 17 17 17 17 17 16 16 16 16 16 16 16 16 16 16 16 16 16 16 16 16 16 16 16 16 16 16 16 16
20 19 19 19 18 18 18 17 17 17 17 17 17 17 17 17 17 17 16 16 16 16 16 16 16 16 16 16 16 16 16 16 15 16 16 16 16 16 16 16 16 16 16
19 19 19 18 18 18 18 17 17 17 17 17 17 17 17 17 16 16 16 16 16 16 16 16 16 16 16 16 15 15 15 15 15 15 15 15 15 15 15 15 15 15 15
19 19 18 18 18 18 17 17 17 17 17 17 17 17 16 16 16 16 16 16 16 16 15 15 15 15 15 15 15 15 15 15 15 15 15 15 15 15 15 15 15 15 15
19 18 18 18 18 17 17 17 17 17 17 17 16 16 16 16 16 16 16 16 15 15 15 15 15 15 15 15 15 15 15 15 15 14 14 14 14 14 14 14 14 14 14
18 18 18 18 17 17 17 17 16 16 16 16 16 16 16 16 16 15 15 15 15 15 15 15 15 15 15 15 15 14 14 14 14 14 14 14 14 14 14 13 13 13 13
18 17 17 17 17 17 16 16 16 16 16 16 16 16 15 15 15 15 15 15 15 15 15 14 14 14 14 14 14 14 14 14 14 13 13 13 13 13 13 13 13 12 12
17 17 17 17 17 16 16 16 16 16 16 16 15 15 15 15 15 15 15 15 14 14 14 14 14 14 14 14 14 13 13 13 13 13 12 12 12 12 12 12 12 12 11
17 17 17 16 16 16 16 16 16 15 15 15 15 15 15 14 14 14 14 14 14 14 13 13 13 13 13 13 13 13 13 12 12 12 12 12 11 11 11 11 11 11 10
16 16 16 16 16 16 15 15 15 15 15 14 14 14 14 14 14 14 14 14 13 13 13 13 12 12 12 12 12 12 12 11 11 11 11 11 11 10 10 10 10 10 10
16 16 16 15 15 15 15 15 14 14 14 14 14 13 13 13 13 13 13 13 13 12 12 12 12 12 12 11 11 11 11 11 11 10 10 10 10 10 9 9 9 9 9
15 15 15 15 15 15 14 14 14 14 14 13 13 13 13 12 12 12 12 12 12 12 12 11 11 11 11 11 11 10 10 10 10 10 9 9 9 9 8 8 8 8 8
15 15 15 14 14 14 14 14 14 13 13 13 13 12 12 12 12 12 12 11 11 11 11 10 10 10 10 10 10 10 9 9 9 9 9 8 8 8 8 7 7 7 7
14 14 14 14 14 13 13 13 13 13 12 12 12 12 11 11 11 11 11 11 11 10 10 10 10 10 10 9 9 9 9 9 8 8 8 7 7 7 7 7 7 7 7
14 14 13 13 13 13 12 12 12 12 12 12 11 11 11 11 10 10 10 10 10 10 10 9 9 9 9 9 8 8 8 8 8 7 7 7 7 6 6 6 6 6 6
13 13 13 12 12 12 12 11 11 11 11 11 11 11 10 10 10 10 10 9 9 9 9 9 9 8 8 8 8 7 7 7 7 6 6 6 6 6 6 6 5 5 5
13 13 12 12 12 12 11 11 11 10 10 10 10 10 10 9 9 9 9 9 9 9 9 8 8 7 7 7 7 7 6 6 6 6 6 6 5 5 5 5 5 5 5
12 12 12 12 11 11 11 11 11 10 10 9 9 9 9 9 9 8 8 8 8 8 8 7 7 7 7 6 6 6 6 6 6 5 5 5 5 5 5 4 4 4 4
12 12 12 11 11 11 10 10 10 10 9 9 8 8 8 8 8 8 8 8 8 7 7 7 6 6 6 6 6 5 5 5 5 5 5 5 4 4 4 4 4 4 4
11 11 11 11 11 10 10 10 9 9 9 9 8 8 8 8 8 7 7 7 7 7 6 6 6 6 6 5 5 5 5 5 5 5 4 4 4 4 4 4 3 3 3
11 11 11 10 10 10 10 9 9 9 8 8 8 7 7 7 7 7 7 6 6 6 6 6 5 5 5 5 5 5 5 4 4 4 4 4 4 3 3 3 3 3 3
11 11 10 10 10 9 9 9 8 8 8 8 7 7 7 7 6 6 6 6 6 5 5 5 5 5 5 5 4 4 4 4 4 4 3 3 3 3 3 3 3 3 2
10 10 10 10 9 9 9 8 8 8 8 7 7 7 6 6 6 6 5 5 5 5 5 5 5 4 4 4 4 4 4 4 3 3 3 3 3 3 3 3 2 2 2
10 10 9 9 9 9 8 8 8 8 7 7 7 6 6 6 6 5 5 5 5 5 5 4 4 4 4 4 4 4 3 3 3 3 3 3 3 2 2 2 2 2 2
10 9 9 9 9 8 8 8 8 7 7 7 6 6 6 6 5 5 5 5 5 4 4 4 4 4 4 4 3 3 3 3 3 3 3 2 2 2 2 2 2 2 2
9 9 9 8 8 8 8 8 7 7 7 7 6 6 6 6 5 5 5 5 4 4 4 4 4 4 3 3 3 3 3 3 2 2 2 2 2 2 2 2 2 2 1
Wind_Speed
7 7 8 8 7 7 7 7 7 6 6 7 7 7 7 6 6 6 7 6 7 6 6 6 7 6 5 5 4 5 5 5 7 5 2 2 2 3 3 3 4 4 4
6 6 7 6 6 6 6 6 6 6 5 6 6 6 6 6 6 7 7 6 6 7 6 6 6 5 5 4 4 5 5 5 6 6 3 2 3 2 2 2 2 2 2
5 5 5 5 5 5 5 5 5 5 4 4 5 5 5 5 5 6 5 5 5 6 6 6 6 5 5 4 4 5 5 5 5 5 4 2 1 1 1 1 1 2 2
5 5 5 5 5 5 4 4 4 4 4 4 4 4 4 4 4 4 4 4 4 3 3 4 4 4 5 5 4 5 4 4 4 4 3 2 1 1 0 1 1 1 2
4 4 3 4 4 4 4 4 3 3 3 3 3 2 2 2 3 3 3 3 2 2 1 1 1 1 2 3 3 3 4 4 3 3 2 1 1 0 1 1 1 1 2
5 4 4 5 5 4 4 3 3 3 3 3 3 3 2 1 2 3 3 2 2 1 0 1 1 1 1 1 2 1 2 3 3 3 2 1 1 1 1 0 0 1 1
6 5 5 5 5 4 4 4 4 4 4 4 4 4 4 4 6 6 6 4 3 2 2 2 1 2 2 2 4 5 5 4 3 3 2 1 1 1 1 1 1 1 0
6 5 5 5 5 4 5 4 4 4 4 4 4 5 5 6 8 8 8 6 6 5 4 3 3 3 3 4 5 6 6 5 4 3 3 2 2 1 1 1 1 2 2
6 5 5 5 5 5 5 4 4 5 6 5 5 6 6 6 8 8 8 6 7 7 7 7 6 5 6 6 6 6 6 5 8 9 8 8 9 9 6 3 3 3 2
5 5 5 6 6 6 5 5 6 7 7 7 7 7 7 6 8 8 7 6 7 6 7 8 11 9 9 7 6 6 6 4 5 7 8 9 9 11 10 6 3 3 2
6 7 7 7 7 7 6 6 7 8 8 8 8 8 7 7 8 9 8 6 6 6 6 6 7 11 12 11 9 7 7 6 7 7 7 7 7 7 8 8 6 4 3
8 8 8 7 7 7 7 7 7 8 8 8 8 8 7 7 8 10 11 9 8 8 7 6 7 12 13 13 10 10 10 9 7 7 7 7 6 6 6 8 9 8 6
9 9 8 9 8 7 8 8 7 7 7 6 6 6 6 6 8 12 12 12 11 9 8 10 11 12 12 11 13 13 10 7 7 7 6 5 4 4 5 5 7 8 9
10 8 8 8 9 8 7 6 6 6 6 6 6 6 6 6 5 6 6 8 10 10 9 10 13 14 11 11 10 9 8 7 6 6 5 5 5 6 6 5 5 5 5
9 8 8 8 8 9 9 8 7 6 5 6 6 6 6 6 5 7 7 7 6 7 8 8 8 8 9 8 8 8 7 7 7 6 6 6 6 6 6 5 4 4 5
8 8 7 7 7 8 9 10 16 13 15 14 11 9 8 9 11 14 15 14 13 11 10 8 8 7 7 7 7 7 7 7 6 6 6 6 5 5 5 5 5 5 5
9 8 7 7 7 8 8 9 9 12 17 18 16 15 14 13 15 15 16 16 14 12 10 8 7 7 6 6 6 6 6 6 5 6 6 5 5 5 5 5 5 5 5
9 9 8 7 7 8 8 8 8 9 9 8 11 15 15 15 15 14 13 12 10 9 7 7 6 6 6 6 6 5 5 5 6 5 5 5 5 4 4 5 5 5 4
9 7 8 8 8 8 8 9 9 9 9 8 7 8 11 13 15 14 11 8 8 7 6 6 5 5 5 5 5 5 5 5 5 4 4 5 4 4 4 4 4 5 5
8 12 10 8 8 8 8 8 8 8 8 7 7 5 4 6 7 7 7 7 7 6 6 5 5 5 5 4 4 4 4 4 5 4 4 4 4 4 4 4 4 4 4
8 10 12 9 8 8 8 8 8 8 7 7 6 5 6 7 7 6 6 6 6 5 5 5 4 4 4 4 4 4 5 4 4 4 4 4 4 4 4 4 4 4 4
8 8 7 8 7 7 8 7 7 7 8 8 6 6 9 7 6 6 5 5 5 4 4 4 4 4 4 4 3 3 4 4 4 3 3 4 4 4 4 4 4 4 4
9 9 8 7 7 9 8 7 7 7 7 6 6 5 5 5 5 5 5 4 4 4 5 5 4 4 4 4 4 3 3 3 3 3 3 3 3 3 3 4 4 5 5
9 9 9 8 7 7 7 7 6 7 7 6 5 5 5 4 4 4 4 4 4 4 4 4 4 4 4 4 4 4 3 3 3 2 3 3 3 3 3 4 4 5 5
8 8 8 7 7 7 7 7 6 6 6 5 5 5 4 4 4 3 3 3 4 3 3 3 3 3 3 4 4 4 5 6 5 4 3 3 4 4 4 4 4 5 5
8 8 7 7 7 7 7 6 6 6 5 5 4 4 4 4 3 3 3 3 2 2 2 2 2 3 3 3 4 5 6 6 6 5 4 3 3 4 4 4 5 5 5
Wind_Direction
192 193 194 194 195 193 199 205 206 205 202 207 208 207 205 206 204 206 216 214 220 228 225 223 230 228 229 227 219 216 220 217 241 261 251 265 264 274 296 285 280 272 271
186 188 195 188 182 189 200 203 201 202 200 203 202 205 208 208 208 211 219 220 221 226 225 221 229 229 228 228 224 224 226 220 228 252 260 254 251 268 285 296 317 294 282
174 178 179 177 175 184 193 190 190 193 192 191 192 199 205 207 208 212 213 217 222 225 224 224 229 223 230 229 228 231 235 232 223 233 253 249 259 305 325 324 342 351 353
159 162 167 170 169 172 172 169 174 177 176 176 184 193 198 198 203 206 203 205 214 227 229 228 230 225 233 228 229 234 232 227 216 222 241 260 272 296 36 334 344 7 17
133 139 146 141 137 139 146 151 154 152 152 152 156 160 164 174 191 187 187 193 202 221 229 223 221 198 218 221 228 228 220 219 211 205 221 227 278 352 314 296 310 1 30
114 116 114 117 123 130 133 131 130 130 127 120 121 125 120 125 104 131 147 142 144 152 129 53 39 50 73 91 94 95 172 201 199 199 210 214 265 280 334 34 36 33 344
103 100 103 111 120 130 132 124 126 127 120 109 101 97 86 75 80 91 106 111 100 88 79 67 44 31 49 79 75 75 67 74 124 163 149 184 234 261 166 103 90 94 69
100 98 100 107 111 112 114 115 119 118 111 102 99 97 89 74 76 78 85 85 76 62 52 52 60 44 54 85 92 82 71 63 79 96 105 93 81 76 129 152 139 110 84
96 93 93 103 108 106 105 105 103 102 96 91 88 88 84 68 67 77 85 86 76 61 52 50 58 58 54 80 96 94 80 64 66 77 78 70 64 62 69 84 80 90 62
91 87 86 91 100 100 96 93 92 97 96 92 81 73 74 67 60 70 87 93 86 74 61 54 54 58 54 66 86 91 86 69 72 72 64 59 58 56 58 66 81 91 82
90 88 84 84 89 92 91 93 97 98 95 89 82 70 65 64 63 65 74 90 95 87 75 62 54 60 61 62 68 75 82 83 76 74 68 59 53 49 45 46 51 72 78
92 88 83 79 82 88 92 89 92 99 98 91 85 73 60 56 63 68 72 80 90 91 82 71 64 64 63 60 64 63 66 71 75 70 65 56 49 44 41 44 48 56 61
93 88 86 82 77 78 85 89 88 90 95 95 93 86 72 63 63 65 70 75 80 87 85 79 71 65 63 61 56 57 59 65 70 71 66 56 45 37 40 44 44 45 46
98 93 90 88 81 73 71 74 83 87 96 100 100 97 87 72 66 71 76 80 78 83 83 74 67 62 62 57 53 53 55 58 67 69 64 52 45 45 43 38 37 31 37
101 98 95 92 92 82 71 60 67 58 83 103 103 103 103 89 66 82 93 89 89 92 89 74 65 61 59 55 53 50 49 50 55 55 58 56 51 48 39 30 33 35 37
109 105 104 104 99 97 94 77 59 66 66 69 78 93 83 91 91 83 80 80 81 88 84 76 69 66 64 60 57 52 48 46 46 51 55 52 49 45 40 34 35 37 34
117 115 111 109 108 105 103 102 92 68 60 60 65 78 88 89 85 86 85 78 69 75 79 77 73 70 67 63 59 56 49 40 43 51 51 47 46 44 39 33 30 30 26
111 110 111 109 109 107 105 103 102 102 90 67 57 68 78 80 79 81 85 81 67 63 75 78 74 69 65 62 59 56 51 45 45 45 45 41 39 39 37 30 26 22 16
112 112 108 105 104 104 103 101 99 99 98 95 87 69 69 76 70 65 70 81 87 79 75 74 72 70 67 64 60 55 53 48 44 42 39 34 32 34 31 24 19 14 13
107 111 110 110 108 106 104 104 104 104 101 98 94 89 79 78 77 67 67 79 86 84 80 78 74 73 70 65 58 54 52 48 42 40 33 26 21 24 23 17 13 8 2
113 114 111 108 108 111 111 111 111 109 106 99 88 79 91 94 92 87 83 83 87 89 86 81 77 72 65 60 56 53 51 45 37 32 25 17 15 15 11 11 8 4 357
115 115 114 113 111 111 112 113 112 111 110 105 96 86 84 92 95 93 89 84 82 82 87 89 82 71 63 58 54 52 47 39 28 21 16 11 9 8 6 6 5 1 359
116 117 114 112 113 112 111 112 114 115 115 112 110 104 99 99 99 98 95 91 89 85 82 85 82 71 60 56 54 51 41 25 5 357 1 1 1 0 358 355 353 351 351
118 120 121 120 118 118 117 116 116 118 118 118 115 112 111 108 106 104 103 101 94 84 80 77 75 69 58 49 42 38 31 18 9 3 0 354 351 349 349 347 344 343 342
117 119 120 121 123 122 120 119 120 121 122 123 123 122 121 119 116 115 115 110 101 89 77 69 62 52 44 37 28 21 19 21 22 14 7 1 355 353 350 346 343 340 344
118 119 120 121 123 126 128 130 130 130 129 129 129 134 136 136 135 135 134 129 118 101 77 58 47 40 32 26 20 19 20 19 16 15 13 4 359 357 352 346 344 344 344
Height
1516 1519 1521 1524 1526 1527 1529 1531 1533 1535 1537 1539 1540 1542 1544 1546 1547 1549 1550 1551 1552 1552 1553 1553 1554 1555 1556 1557 1557 1558 1559 1559 1558 1558 1559 1559 1559 1559 1559 1559 1559 1559 1559
1513 1516 1518 1520 1522 1523 1525 1527 1529 1531 1533 1535 1537 1538 1539 1541 1543 1544 1545 1546 1547 1547 1548 1548 1549 1550 1551 1552 1553 1553 1554 1554 1554 1554 1554 1554 1554 1555 1554 1554 1554 1554 1554
1511 1513 1514 1516 1518 1519 1521 1524 1526 1528 1530 1531 1533 1534 1535 1537 1538 1540 1541 1542 1542 1543 1543 1544 1544 1545 1546 1546 1547 1548 1549 1549 1549 1549 1549 1550 1550 1550 1550 1550 1550 1550 1549
1509 1511 1512 1514 1515 1517 1519 1521 1523 1525 1527 1528 1530 1531 1532 1533 1534 1536 1537 1538 1539 1539 1539 1540 1540 1541 1541 1541 1542 1543 1544 1544 1545 1545 1545 1545 1545 1545 1546 1545 1545 1545 1545
1507 1509 1510 1512 1514 1516 1517 1520 1522 1523 1525 1526 1527 1528 1529 1530 1531 1533 1534 1535 1535 1536 1536 1537 1537 1537 1537 1538 1538 1538 1539 1539 1540 1540 1540 1541 1541 1541 1541 1541 1541 1541 1541
1506 1508 1509 1511 1512 1514 1516 1519 1521 1522 1523 1524 1525 1526 1527 1528 1529 1531 1532 1532 1533 1533 1534 1534 1534 1534 1534 1534 1535 1535 1535 1535 1535 1536 1536 1536 1537 1537 1538 1538 1538 1538 1538
1506 1508 1509 1510 1512 1514 1515 1517 1519 1521 1522 1523 1524 1525 1525 1527 1528 1529 1530 1530 1531 1531 1532 1532 1532 1532 1532 1532 1532 1531 1531 1532 1532 1533 1533 1533 1534 1534 1535 1534 1534 1534 1535
1506 1507 1509 1510 1512 1514 1515 1517 1519 1520 1521 1522 1523 1524 1525 1526 1527 1528 1528 1529 1529 1530 1530 1530 1530 1530 1530 1530 1530 1529 1529 1529 1529 1530 1530 1531 1531 1532 1532 1532 1532 1533 1533
1507 1508 1509 1511 1512 1514 1515 1517 1518 1519 1521 1522 1523 1523 1524 1526 1527 1527 1528 1528 1528 1529 1529 1530 1530 1529 1529 1529 1528 1528 1527 1527 1528 1528 1529 1529 1529 1530 1530 1530 1530 1530 1530
1508 1509 1510 1512 1513 1514 1516 1517 1518 1520 1521 1522 1523 1524 1525 1526 1527 1527 1528 1528 1528 1528 1529 1529 1529 1529 1528 1528 1528 1527 1527 1527 1527 1527 1527 1527 1528 1528 1528 1528 1528 1528 1527
1509 1510 1511 1512 1514 1515 1516 1517 1518 1520 1521 1523 1523 1525 1526 1527 1528 1528 1528 1528 1529 1528 1529 1529 1529 1530 1530 1529 1529 1528 1528 1528 1527 1527 1527 1527 1527 1527 1527 1527 1527 1527 1527
1509 1511 1512 1513 1515 1516 1517 1518 1520 1521 1522 1523 1525 1526 1527 1528 1529 1529 1529 1529 1530 1530 1530 1531 1531 1532 1531 1531 1531 1530 1530 1529 1529 1529 1528 1528 1528 1527 1527 1527 1527 1527 1527
1510 1512 1513 1515 1516 1517 1518 1519 1521 1522 1523 1524 1525 1526 1527 1529 1529 1530 1531 1531 1531 1531 1532 1532 1533 1533 1533 1533 1532 1532 1532 1531 1530 1530 1530 1530 1530 1530 1529 1529 1528 1528 1527
1511 1512 1514 1516 1517 1518 1520 1521 1522 1523 1524 1525 1527 1527 1529 1530 1531 1532 1532 1533 1533 1533 1534 1535 1535 1535 1535 1535 1534 1534 1533 1533 1533 1532 1532 1532 1532 1531 1531 1530 1529 1528 1527
1511 1513 1515 1517 1519 1520 1521 1523 1524 1525 1527 1528 1529 1530 1530 1531 1533 1534 1534 1535 1535 1536 1536 1537 1537 1537 1537 1537 1537 1536 1536 1536 1535 1535 1535 1534 1534 1533 1532 1531 1530 1529 1528
1512 1514 1516 1518 1520 1521 1523 1524 1526 1528 1530 1531 1532 1532 1533 1534 1535 1536 1537 1537 1538 1539 1539 1539 1539 1539 1539 1539 1539 1539 1538 1538 1537 1537 1536 1536 1535 1535 1534 1533 1532 1530 1529
1514 1516 1518 1520 1522 1524 1525 1527 1528 1531 1533 1534 1535 1536 1537 1537 1539 1539 1540 1540 1541 1542 1541 1541 1542 1542 1542 1542 1542 1541 1541 1540 1539 1539 1538 1538 1537 1536 1535 1534 1533 1532 1530
1516 1518 1520 1522 1524 1526 1528 1530 1532 1533 1535 1537 1539 1540 1541 1541 1542 1542 1543 1544 1544 1544 1544 1544 1545 1545 1545 1545 1544 1544 1543 1542 1542 1541 1540 1540 1539 1538 1537 1535 1534 1533 1531
1518 1520 1522 1524 1526 1529 1531 1533 1534 1536 1538 1540 1542 1543 1544 1545 1545 1546 1546 1546 1546 1546 1547 1547 1547 1547 1547 1547 1546 1545 1545 1544 1543 1543 1542 1541 1540 1539 1538 1536 1535 1533 1532
1520 1522 1525 1527 1529 1531 1534 1536 1537 1539 1541 1543 1544 1546 1547 1548 1548 1548 1549 1549 1549 1549 1550 1550 1550 1550 1549 1549 1548 1547 1546 1546 1545 1544 1543 1542 1541 1540 1538 1537 1535 1534 1532
1523 1525 1528 1530 1532 1534 1536 1539 1541 1542 1544 1546 1547 1549 1550 1550 1550 1551 1551 1552 1552 1552 1552 1552 1552 1551 1551 1550 1549 1549 1548 1547 1546 1545 1544 1543 1541 1540 1538 1537 1535 1534 1532
1525 1528 1530 1532 1535 1537 1539 1541 1543 1545 1547 1548 1550 1551 1552 1553 1553 1553 1554 1554 1554 1554 1554 1554 1554 1553 1552 1552 1551 1550 1549 1548 1546 1545 1544 1543 1541 1540 1538 1537 1535 1533 1532
1528 1530 1532 1535 1537 1539 1542 1544 1546 1548 1549 1551 1552 1553 1554 1555 1555 1555 1556 1556 1556 1556 1556 1556 1555 1555 1554 1553 1552 1551 1549 1548 1547 1545 1544 1543 1541 1539 1538 1536 1535 1533 1531
1531 1533 1535 1537 1540 1542 1544 1546 1548 1550 1552 1553 1554 1555 1556 1557 1557 1557 1558 1558 1558 1558 1558 1557 1557 1556 1555 1554 1552 1551 1550 1548 1547 1545 1544 1542 1541 1539 1537 1536 1534 1532 1530
1534 1536 1538 1540 1542 1544 1546 1548 1550 1552 1554 1555 1556 1557 1558 1558 1559 1559 1559 1559 1559 1559 1559 1558 1557 1556 1555 1554 1553 1552 1550 1548 1547 1545 1544 1542 1540 1538 1537 1535 1533 1532 1530
1536 1539 1541 1543 1545 1547 1548 1550 1552 1553 1555 1556 1557 1558 1559 1559 1560 1560 1560 1560 1560 1560 1559 1558 1558 1557 1556 1554 1553 1552 1550 1548 1547 1545 1543 1542 1540 1538 1536 1534 1532 1531 1529